Location: *
(55.5817°S, 142.4781°W)
Time: 06:48:29
(UTC+00:00)

SL-16 R/B - Pass Details

Date: 29 April 2025
Orbit: 985 x 1006 km, 99.7° (Epoch: 23 May)

Event Time Altitude Azimuth Distance (km) Brightness Sun altitude
Rises 15:31:58 0° 163° (SSE) 3,780 5.7 -11.4°
Reaches altitude 10° 15:34:40 10° 171° (S) 2,823 4.9 -11.0°
Maximum altitude 15:40:18 35° 233° (SW) 1,595 3.2 -10.3°
Drops below altitude 10° 15:45:52 10° 296° (WNW) 2,793 4.4 -9.5°
Sets 15:48:32 0° 304° (NW) 3,734 5.1 -9.1°
